Home   Weather   Luckenwalde   Past weeks

Flag for Germany Past Weather in Luckenwalde, Brandenburg, Germany — Yesterday and Last 2 Weeks

Now
63 °F

Scattered clouds.


Feels Like: 63 °F
Forecast: 46 / 72 °F
Wind: 2 mph from Southwest

Location: Holzdorf

Current Time: Sep 26, 2016 at 12:41:43 PM

Latest Report: Sep 26, 2016 at 11:20 AM


Visibility: N/A

Pressure: 30.15 "Hg

Humidity: 68%

Dew Point: 52 °F

Location of LuckenwaldeLocation

Past Weather in Luckenwalde — Graph

°F

Luckenwalde Temperature Yesterday

Maximum temperature yesterday: 73 °F (at 2:20 PM)
Minimum temperature yesterday: 43 °F (at 3:20 AM)
Average temperature yesterday: 57 °F

High & Low Weather Summary for the Past Weeks

 TemperatureHumidityPressure
High90 °F (Sep 12, 3:20 PM)100% (Sep 12, 6:20 AM)30.30 "Hg (Sep 12, 6:20 AM)
Low41 °F (Sep 22, 7:20 AM)28% (Sep 15, 3:20 PM)29.83 "Hg (Sep 17, 4:20 AM)
Average62 °F70%30.06 "Hg
* Reported Sep 11 11:20 AM — Sep 26 11:20 AM, Luckenwalde, Weather by CustomWeather, © 2016

Note: Actual official high and low records may vary slightly from our data, if they occured in-between our weather recording intervals... More about our weather records

Advertising

Luckenwalde Weather History for the Previous 24 Hours

Scroll right to see more
 ConditionsComfort  
Time TempWeatherWind HumidityBarometerVisibility
11:20 AM
Mon, Sep 26
63 °FScattered clouds.2 mph68%30.15 "HgN/A
10:20 AM55 °FScattered clouds.2 mph82%30.18 "Hg6 mi
9:20 AM50 °FScattered clouds.5 mph100%30.18 "Hg4 mi
8:50 AM48 °FScattered clouds.2 mph100%30.15 "Hg4 mi
8:20 AM45 °FFog.2 mph100%30.15 "Hg2 mi
7:20 AM45 °FFog.2 mph93%30.15 "Hg2 mi
6:20 AM43 °FFog.1 mph100%30.12 "Hg5 mi
5:20 AM43 °FFog.1 mph100%30.12 "HgN/A
4:20 AM45 °FFog.1 mph100%30.12 "HgN/A
3:20 AM45 °FFog.1 mph100%30.12 "HgN/A
2:20 AM48 °FCool.1 mph94%30.12 "HgN/A
1:20 AM52 °FCool.2 mph88%30.12 "HgN/A
12:20 AM55 °FCool.5 mph77%30.12 "HgN/A
11:20 PM
Sun, Sep 25
57 °FPassing clouds.8 mph72%30.12 "HgN/A
10:20 PM52 °FPassing clouds.5 mph82%30.12 "HgN/A
9:20 PM55 °FPassing clouds.2 mph77%30.12 "HgN/A
8:20 PM57 °FPassing clouds.5 mph72%30.12 "HgN/A
7:20 PM61 °FPassing clouds.3 mph63%30.12 "HgN/A
6:20 PM66 °FScattered clouds.3 mph52%30.09 "HgN/A
5:20 PM73 °FScattered clouds.6 mph36%30.09 "HgN/A
4:20 PM73 °FScattered clouds.8 mph38%30.12 "HgN/A
3:20 PM73 °FPartly sunny.7 mph41%30.12 "HgN/A
2:20 PM73 °FPartly sunny.7 mph41%30.12 "HgN/A
1:20 PM72 °FPartly sunny.8 mph47%30.15 "HgN/A
12:20 PM70 °FPartly sunny.10 mph50%30.18 "HgN/A
Weather by CustomWeather, © 2016

See weather overviewHow to use our weather pages